This demonstration page uses our WeatherBlox Daily Observations layout. Learn more.

Hourly Observations for October 14, 2020

Temp ( °F °C ) Dew Point ( °F °C ) Humidity (%) Winds ( mph kmh ) Pressure ( in mb ) Visibility ( mi km ) Precip ( " mm )
12:15 am 00:15 Clear 52 11 45 7 77 77 NW 9 15 30.03 1017 10 16.0934 0 0
12:35 am 00:35 Clear 52 11 45 7 77 77 NW 10 17 30.03 1017 10 16.0934 0 0
12:55 am 00:55 Clear 52 11 45 7 77 77 NW 8 13 30.03 1017 10 16.0934 0 0
1:15 am 01:15 Clear 48 9 45 7 87 87 NW 9 15 30.04 1017 10 16.0934 0 0
1:35 am 01:35 Clear 50 10 45 7 82 82 NW 9 15 30.04 1017 10 16.0934 0 0
1:55 am 01:55 Clear 52 11 45 7 77 77 NW 10 17 30.04 1017 10 16.0934 0 0
2:15 am 02:15 Clear 52 11 45 7 77 77 NW 9 15 30.04 1017 10 16.0934 0 0
2:35 am 02:35 Clear 52 11 45 7 77 77 NW 9 15 30.04 1017 10 16.0934 0 0
2:55 am 02:55 Clear 54 12 45 7 72 72 NW 10 17 30.03 1017 10 16.0934 0 0
3:15 am 03:15 Clear 52 11 45 7 77 77 NW 12 19 30.03 1017 10 16.0934 0 0
3:35 am 03:35 Clear 52 11 45 7 77 77 NNW 9 15 30.03 1017 10 16.0934 0 0
3:55 am 03:55 Clear 52 11 45 7 77 77 NNW 9 15 30.02 1017 10 16.0934 0 0
4:15 am 04:15 Clear 54 12 45 7 72 72 NW 3 6 30.03 1017 10 16.0934 0 0
4:35 am 04:35 Clear 52 11 45 7 77 77 S 5 7 30.04 1017 10 16.0934 0 0
4:55 am 04:55 Clear 50 10 45 7 82 82 SW 3 6 30.06 1018 10 16.0934 0 0
5:15 am 05:15 Clear 50 10 45 7 82 82 W 5 7 30.06 1018 10 16.0934 0 0
5:35 am 05:35 Clear 46 8 45 7 93 93 W 6 9 30.07 1018 10 16.0934 0 0
5:55 am 05:55 Clear 46 8 45 7 93 93 WSW 3 6 30.07 1018 10 16.0934 0 0
6:15 am 06:15 Clear 46 8 45 7 93 93 Calm 30.07 1018 10 16.0934 0 0
6:35 am 06:35 Clear 46 8 45 7 93 93 Calm 30.07 1018 10 16.0934 0 0
6:55 am 06:55 Clear 45 7 45 7 100 100 Calm 30.08 1019 10 16.0934 0 0
7:15 am 07:15 Clear 45 7 43 6 93 93 Calm 30.09 1019 10 16.0934 0 0
7:35 am 07:35 Sunny 45 7 43 6 93 93 Calm 30.09 1019 10 16.0934 0 0
7:55 am 07:55 Sunny 43 6 43 6 100 100 Calm 30.09 1019 10 16.0934 0 0
8:15 am 08:15 Sunny 45 7 45 7 100 100 Calm 30.09 1019 10 16.0934 0 0
8:35 am 08:35 Sunny 46 8 45 7 93 93 Calm 30.1 1019 10 16.0934 0 0
8:55 am 08:55 Sunny 50 10 46 8 88 88 SSW 3 6 30.11 1020 10 16.0934 0 0
9:15 am 09:15 Sunny 54 12 46 8 77 77 S 5 7 30.1 1019 10 16.0934 0 0
9:35 am 09:35 Sunny 55 13 46 8 72 72 Calm 30.1 1019 10 16.0934 0 0
9:55 am 09:55 Sunny 59 15 46 8 63 63 SSW 6 9 30.1 1019 10 16.0934 0 0
10:15 am 10:15 Sunny 61 16 48 9 63 63 S 5 7 30.1 1019 10 16.0934 0 0
10:35 am 10:35 Sunny 63 17 46 8 56 56 SSW 6 9 30.1 1019 10 16.0934 0 0
10:55 am 10:55 Sunny 64 18 46 8 52 52 Calm 30.08 1019 10 16.0934 0 0
11:15 am 11:15 Sunny 64 18 46 8 52 52 Calm 30.08 1019 10 16.0934 0 0
11:35 am 11:35 Sunny 66 19 46 8 49 49 WSW 3 6 30.08 1019 10 16.0934 0 0
11:55 am 11:55 Sunny 68 20 46 8 46 46 W 7 11 30.07 1018 10 16.0934 0 0
12:15 pm 12:15 Sunny 70 21 46 8 43 43 W 6 9 30.07 1018 10 16.0934 0 0
12:35 pm 12:35 Sunny 70 21 45 7 40 40 Calm 30.06 1018 10 16.0934 0 0
12:55 pm 12:55 Sunny 70 21 46 8 43 43 NNW 7 11 30.05 1018 10 16.0934 0 0
1:15 pm 13:15 Sunny 70 21 46 8 43 43 NW 6 9 30.05 1018 10 16.0934 0 0
1:35 pm 13:35 Sunny 72 22 45 7 38 38 W 7 11 30.04 1017 10 16.0934 0 0
1:55 pm 13:55 Sunny 72 22 46 8 41 41 WNW 7 11 30.03 1017 10 16.0934 0 0
2:15 pm 14:15 Sunny 72 22 46 8 41 41 NW 6 9 30.02 1017 10 16.0934 0 0
2:35 pm 14:35 Sunny 72 22 45 7 38 38 NW 6 9 30.02 1017 10 16.0934 0 0
2:55 pm 14:55 Sunny 73 23 46 8 38 38 W 10 17 30.01 1016 10 16.0934 0 0
3:15 pm 15:15 Sunny 73 23 45 7 36 36 WNW 10 17 30.01 1016 10 16.0934 0 0
3:35 pm 15:35 Sunny 73 23 46 8 38 38 WNW 7 11 30.01 1016 10 16.0934 0 0
3:55 pm 15:55 Sunny 73 23 45 7 36 36 W 9 15 30.01 1016 10 16.0934 0 0
4:15 pm 16:15 Sunny 73 23 46 8 38 38 WNW 3 6 30.01 1016 10 16.0934 0 0
4:35 pm 16:35 Sunny 73 23 46 8 38 38 WNW 8 13 30 1016 10 16.0934 0 0
4:55 pm 16:55 Sunny 73 23 45 7 36 36 W 5 7 30 1016 10 16.0934 0 0
5:15 pm 17:15 Sunny 73 23 46 8 38 38 SW 5 7 30 1016 10 16.0934 0 0
5:35 pm 17:35 Sunny 72 22 46 8 41 41 SW 3 6 30 1016 10 16.0934 0 0
5:55 pm 17:55 Sunny 72 22 46 8 41 41 Calm 30 1016 10 16.0934 0 0
6:15 pm 18:15 Sunny 70 21 48 9 46 46 S 3 6 30 1016 10 16.0934 0 0
6:35 pm 18:35 Clear 68 20 50 10 53 53 S 7 11 30.01 1016 10 16.0934 0 0
6:55 pm 18:55 Clear 66 19 48 9 52 52 S 8 13 30.01 1016 10 16.0934 0 0
7:15 pm 19:15 Clear 64 18 50 10 60 60 S 6 9 30.01 1016 10 16.0934 0 0
7:35 pm 19:35 Clear 64 18 50 10 60 60 S 5 7 30.01 1016 10 16.0934 0 0
7:55 pm 19:55 Clear 63 17 50 10 64 64 S 5 7 30.03 1017 10 16.0934 0 0
8:15 pm 20:15 Clear 63 17 50 10 64 64 SSW 3 6 30.03 1017 10 16.0934 0 0
8:35 pm 20:35 Clear 61 16 50 10 68 68 SSW 5 7 30.02 1016 10 16.0934 0 0
8:55 pm 20:55 Clear 61 16 50 10 68 68 SSW 5 7 30.03 1017 10 16.0934 0 0
9:15 pm 21:15 Clear 59 15 50 10 72 72 SSW 6 9 30.03 1017 10 16.0934 0 0
9:35 pm 21:35 Clear 59 15 50 10 72 72 S 6 9 30.03 1017 10 16.0934 0 0
9:55 pm 21:55 Clear 59 15 50 10 72 72 SSW 5 7 30.04 1017 10 16.0934 0 0
10:15 pm 22:15 Clear 59 15 50 10 72 72 S 5 7 30.04 1017 10 16.0934 0 0
10:35 pm 22:35 Clear 59 15 50 10 72 72 S 5 7 30.03 1017 10 16.0934 0 0
10:55 pm 22:55 Clear 55 13 50 10 82 82 SSW 6 9 30.04 1017 10 16.0934 0 0
11:15 pm 23:15 Clear 55 13 50 10 82 82 S 7 11 30.04 1017 10 16.0934 0 0
11:35 pm 23:35 Clear 55 13 50 10 82 82 S 7 11 30.03 1017 10 16.0934 0 0
11:55 pm 23:55 Clear 55 13 50 10 82 82 SSW 6 9 30.02 1017 10 16.0934 0 0

Powered by AerisWeather